Location: North Smoke Tower Site
(30.5430°N, 82.3390°W)
Time: 10:07:40
(UTC-04:00)

Cosmos 1980 Rocket - Visible Passes

Search period start: 21 September 2014 00:00
Search period end: 01 October 2014 00:00
Orbit: 828 x 852 km, 71.0° (Epoch: 21 September)

Date Brightness Start Highest point End Pass type
(mag) Time Alt. Az. Time Alt. Az. Time Alt. Az.
29 Sep 5.0 06:44:03 10° NNE 06:47:25 16° ENE 06:50:47 10° E visible
29 Sep 4.1 21:27:01 10° SSW 21:28:20 18° SSW 21:28:20 18° SSW visible
30 Sep 5.0 06:28:41 10° NNE 06:31:48 15° ENE 06:34:53 10° E visible
30 Sep 2.2 21:11:27 10° SSW 21:16:23 66° SSE 21:16:23 66° SSE visible
